PATHFINDER 1

Last updated on Thu Oct 30 2025 00:02:32 GMT+0000 (Coordinated Universal Time)

1 41787U 16059E 25302.46406198 .00001154 00000+0 21220-3 0 9998 2 41787 97.8151 307.2914 0027664 219.7430 140.1749 14.67204224485877
UTC large
Height (km)
Speed (km/s)
/
Latitude / Longitude
Inclination (degrees)
Orbital Period (minutes)
Azimuth
Elevation
Range (km)
Doppler Factor

Next 0 passes for location: London (51.5072 / 0.1276)

Sorry there are no passes over London.